(480038) = 2013 SW96 = 2015 BK198

Discovered at Mount Lemmon on 2012-03-13 by Mt. Lemmon Survey.

Orbit

Orbit type: Main Belt

Note: WebGL enabled browser required.

epoch2023-09-13.0
epoch JD2460200.5
perihelion date2022-08-18.98224
perihelion JD2459810.48224
argument of perihelion (°)268.87862
ascending node (°)342.43703
inclination (°)1.97712
eccentricity0.0976614
perihelion distance (AU)1.9927786
Tisserand w.r.t. Jupiter3.7
ΔV w.r.t. Earth (km/sec)8.7
semimajor axis (AU)2.2084599
mean anomaly (°)117.12617
mean daily motion (°/day)0.30030980
aphelion distance (AU)2.424
period (years)3.28
P-vector [x]-0.32017460
P-vector [y]-0.85488731
P-vector [z]-0.40823513
Q-vector [x]0.94730135
Q-vector [y]-0.29364047
Q-vector [z]-0.12804464
absolute magnitude18.52
phase slope0.15
uncertainty0
referenceMPO 780236
observations used118
oppositions8
arc length (days)4753
first opposition used2010
last opposition used2023
residual rms (arc-secs)0.67
perturbers coarse indicatorM-v
perturbers precise indicator003Ek
first observation date used2010-10-31.0
last observation date used2023-11-05.0
computer nameMPCLINUX
JD of orbit computation2457640.379211
perihelion JD uncertainty (days)1.1407E-04
argument of perihelion uncertainty (°)8.8041E-05
ascending node uncertainty (°)8.1268E-05
inclination uncertainty (°)6.0196E-06
eccentricity uncertainty 2.5372E-08
perihelion distance uncertainty (AU)5.4253E-08
Minimum Orbit Intersection Distances (in AU)
for orbit epoch: 2460200.5, reference: E2023-V65
Mercury1.52654
Venus1.26781
Earth0.97888
Mars0.44336
Jupiter2.5908
Saturn6.641
Uranus16.2345
Neptune27.4601

Observations

121 total observations over interval: 2010 10 31.25741 – 2023 11 05.306665
These data are available for download (format description).

